Location: Christianberg
(48.9086°N, 14.0209°E)
Time: 14:15:52
(UTC+00:00)

Cosmos 1943 - Visible Passes

Search period start: 22 October 2021 00:00
Search period end: 01 November 2021 00:00
Orbit: 833 x 850 km, 71.0° (Epoch: 21 October)

Date Brightness Start Highest point End Pass type
(mag) Time Alt. Az. Time Alt. Az. Time Alt. Az.
22 Oct 5.9 01:13:58 11° N 01:13:58 11° N 01:14:14 10° N visible
27 Oct 5.2 05:10:42 10° N 05:15:11 24° NE 05:19:39 10° E visible
28 Oct 5.2 04:55:38 10° N 05:00:03 23° NE 05:04:27 10° E visible
29 Oct 5.3 04:40:34 10° N 04:44:56 22° NE 04:49:15 10° E visible
30 Oct 5.3 04:25:31 10° N 04:29:47 21° NE 04:34:01 10° E visible
31 Oct 5.4 04:10:28 10° N 04:14:39 21° NE 04:18:49 10° E visible
